Temp
6 6 8 7 8 8 7 7 7 7 7 7 7 7 7 7 7 8 8 8 8 8 8 8 7 7 7 7 9 13 12 12 12 12 12 14 15 15 17 18 19 20 21 22 23 23 23
3 6 7 7 7 7 7 7 7 7 6 6 7 7 7 7 7 8 8 8 9 8 7 7 7 6 3 6 11 11 12 12 12 12 13 14 15 16 17 18 19 20 21 22 23 23 23
3 4 5 7 7 7 7 7 7 7 6 6 7 6 7 7 7 7 7 8 8 8 8 8 6 5 4 7 11 11 11 12 12 13 13 14 15 16 17 18 18 20 20 22 23 23 23
6 4 4 6 7 7 7 7 6 6 6 6 6 6 6 6 7 7 8 8 8 7 7 7 5 4 5 8 10 10 11 10 11 11 12 12 13 15 16 17 18 19 20 19 21 22 23
5 4 3 5 5 6 6 6 6 6 6 6 6 6 6 6 7 7 7 8 7 6 6 6 4 4 7 10 9 10 10 10 11 11 12 12 12 13 15 15 16 18 18 18 19 22 22
3 2 2 3 4 6 6 6 6 5 5 5 5 5 5 5 6 6 6 8 7 7 6 5 5 6 8 10 12 11 11 11 11 12 12 12 12 13 14 15 14 16 17 18 19 21 22
1 1 1 3 5 6 6 6 5 5 4 4 4 5 5 5 5 4 5 6 6 8 7 8 9 9 10 11 11 11 11 11 11 12 12 13 12 12 13 15 16 17 18 19 20 22 22
0 0 1 2 4 5 4 4 4 4 3 4 4 4 5 4 4 4 4 5 5 3 4 5 6 7 7 8 9 9 10 10 11 11 13 13 12 14 15 16 16 16 17 18 20 21 22
-0 -1 -0 1 3 3 4 4 4 3 3 4 4 4 4 4 4 4 5 5 4 4 5 6 8 10 10 10 10 10 11 11 11 12 12 12 14 15 15 15 16 17 17 17 17 19 21
-0 -1 -1 0 3 3 2 2 3 3 3 3 4 4 4 4 3 4 6 4 3 3 4 10 11 9 10 9 11 11 11 11 12 11 13 13 15 15 15 15 16 16 18 18 17 17 16
-1 -1 -1 1 1 1 1 2 3 3 3 3 4 4 3 2 3 4 4 3 3 3 6 13 11 8 10 10 8 9 11 11 11 11 12 12 13 15 15 16 17 17 18 17 16 16 16
-1 -1 1 -1 -0 0 1 2 2 3 3 3 3 3 3 3 3 3 3 2 3 4 7 11 11 10 10 11 11 9 11 9 8 12 12 13 15 14 16 17 17 18 15 15 14 14 13
-1 -2 -1 -1 -1 0 1 1 2 3 3 3 3 3 3 2 3 3 2 4 4 6 10 9 9 9 9 9 7 8 9 8 7 10 10 12 11 9 17 16 17 16 14 10 10 10 11
-1 -2 -2 -2 -1 -0 1 1 2 2 2 2 3 3 2 3 2 3 3 4 5 9 8 9 9 9 8 4 5 7 6 7 10 10 12 11 9 11 16 16 15 14 13 10 12 12 14
-2 -2 -1 -2 -1 -0 0 1 2 2 2 2 3 2 3 3 4 2 4 6 7 8 8 7 8 6 6 7 6 5 7 10 12 13 11 7 9 11 14 16 16 13 12 14 11 14 13
-2 -2 -2 -2 -2 -1 -0 1 2 2 2 3 3 4 5 4 4 3 5 7 8 8 9 8 4 4 3 5 4 4 8 13 13 14 12 9 8 8 13 12 14 13 14 10 10 11 11
-2 -2 -2 -2 -2 -1 -0 1 1 2 2 2 3 5 3 4 3 5 5 7 8 9 8 7 6 4 4 4 4 5 8 13 15 11 9 6 6 10 12 10 10 8 10 11 12 13 11
-2 -2 -2 -2 -2 -1 -1 0 1 1 2 3 4 6 3 4 4 6 7 8 8 9 8 8 6 4 3 3 4 4 5 7 16 10 8 11 9 10 11 14 14 10 10 11 11 14 14
-2 -2 -2 -2 -2 -2 -1 -0 1 1 2 2 5 6 4 3 5 7 8 8 9 8 7 7 5 5 3 3 3 3 4 9 10 12 10 11 9 9 8 10 12 11 14 15 12 11 13
-2 -2 -3 -2 -2 -2 -1 -0 0 1 1 2 3 4 5 5 5 6 7 7 8 8 8 7 7 5 6 4 4 3 5 9 10 10 8 11 11 11 8 10 13 12 13 14 14 12 13
-2 -3 -2 -2 -2 -2 -1 -1 0 1 1 2 2 4 5 5 6 6 7 7 7 7 7 7 7 8 6 4 4 4 4 7 10 9 9 7 7 6 7 12 14 12 13 14 13 13 12
-2 -3 -3 -2 -3 -2 -2 -1 -0 0 1 1 3 5 5 7 6 6 6 7 7 7 7 7 7 7 7 6 5 5 5 6 7 9 8 8 7 10 6 10 11 8 13 14 12 11 10
-2 -3 -3 -3 -3 -3 -2 -1 -0 -0 1 1 4 4 4 6 8 7 7 7 7 8 8 8 8 7 7 6 7 8 8 9 9 8 7 7 10 9 9 12 12 10 12 10 10 9 8
-2 -3 -3 -3 -3 -3 -2 -1 -1 -0 1 -0 1 3 5 5 7 8 7 7 8 8 7 8 8 7 7 6 8 9 10 11 11 10 9 7 9 11 9 10 8 9 11 10 8 7 8
-3 -3 -3 -3 -3 -3 -2 -2 -1 -1 -0 0 1 1 3 5 7 7 7 7 7 8 8 8 7 6 6 7 9 8 9 9 11 11 11 11 10 10 10 10 9 9 8 7 7 4 5
-3 -3 -3 -3 -3 -3 -3 -2 -1 -1 -1 0 -0 1 1 3 4 5 6 7 7 7 8 8 6 6 6 9 8 8 8 9 9 8 12 12 12 11 11 10 8 4 4 7 9 4 3
-2 -3 -3 -3 -3 -3 -3 -2 -2 -1 -1 -1 -1 -0 0 1 4 4 5 5 5 6 7 7 6 6 6 7 7 7 8 10 8 8 9 9 9 9 9 9 5 2 5 6 7 2 0
-2 -2 -3 -3 -3 -3 -3 -3 -2 -2 -1 -1 -1 -0 -0 0 2 3 3 3 4 5 4 5 6 5 5 5 6 6 7 8 6 9 8 6 6 6 7 6 5 1 4 3 0 -1 -0
-3 -3 -3 -3 -3 -3 -3 -3 -3 -2 -2 -1 -1 -1 -1 -1 1 1 1 2 2 3 3 4 5 5 5 5 5 4 5 7 8 5 8 5 5 5 3 2 0 -0 -1 -1 -1 -1 -1
Height
1502 1504 1505 1506 1507 1507 1507 1508 1508 1507 1507 1506 1505 1503 1501 1499 1497 1496 1493 1491 1489 1486 1483 1481 1479 1474 1470 1472 1461 1461 1456 1458 1457 1456 1456 1457 1457 1456 1450 1451 1449 1441 1433 1437 1435 1437 1434
1501 1501 1502 1503 1505 1506 1506 1506 1506 1506 1505 1504 1503 1501 1498 1496 1495 1493 1490 1487 1484 1481 1478 1476 1475 1472 1471 1466 1453 1455 1454 1454 1454 1452 1450 1451 1450 1449 1443 1442 1442 1434 1434 1430 1428 1426 1427
1496 1498 1500 1500 1502 1503 1504 1504 1504 1504 1502 1501 1500 1499 1497 1494 1491 1488 1486 1482 1479 1476 1472 1471 1471 1468 1466 1449 1450 1449 1450 1450 1451 1448 1447 1447 1448 1446 1440 1434 1435 1432 1430 1423 1419 1419 1419
1487 1495 1497 1499 1500 1501 1502 1502 1502 1501 1500 1499 1498 1495 1494 1490 1487 1485 1482 1478 1475 1470 1468 1466 1466 1465 1459 1447 1446 1443 1443 1441 1443 1444 1444 1446 1445 1441 1437 1435 1431 1427 1424 1422 1409 1414 1412
1479 1490 1495 1497 1499 1499 1499 1499 1499 1499 1498 1497 1495 1493 1491 1488 1485 1482 1478 1474 1470 1467 1467 1464 1464 1465 1452 1442 1438 1436 1438 1438 1438 1438 1438 1440 1443 1439 1438 1433 1431 1421 1418 1410 1411 1408 1410
1481 1485 1493 1495 1497 1497 1497 1496 1496 1497 1496 1495 1493 1491 1490 1485 1481 1479 1475 1471 1466 1464 1464 1463 1463 1467 1442 1437 1435 1434 1434 1435 1435 1433 1433 1434 1436 1435 1432 1425 1418 1410 1410 1410 1404 1399 1402
1479 1481 1490 1491 1495 1496 1496 1494 1493 1494 1495 1492 1491 1489 1487 1483 1481 1479 1475 1470 1471 1465 1465 1459 1453 1441 1433 1435 1433 1429 1432 1430 1429 1428 1426 1426 1429 1422 1415 1414 1411 1408 1404 1398 1393 1392 1390
1475 1478 1484 1489 1491 1493 1493 1493 1492 1492 1492 1491 1489 1488 1484 1484 1481 1478 1477 1481 1481 1480 1455 1451 1438 1434 1433 1437 1429 1427 1429 1427 1423 1417 1416 1420 1413 1406 1412 1412 1410 1410 1404 1398 1392 1384 1382
1470 1475 1480 1484 1487 1490 1491 1490 1489 1490 1491 1489 1489 1487 1485 1482 1481 1480 1482 1482 1480 1476 1466 1432 1430 1425 1425 1428 1425 1420 1421 1418 1417 1411 1408 1405 1396 1405 1409 1406 1402 1400 1402 1402 1402 1389 1385
1464 1470 1476 1480 1484 1486 1488 1488 1488 1488 1488 1488 1487 1486 1483 1481 1482 1481 1482 1481 1477 1474 1465 1430 1426 1430 1429 1428 1419 1416 1413 1412 1408 1404 1402 1395 1393 1394 1397 1399 1396 1397 1390 1395 1398 1403 1407
1461 1466 1471 1477 1480 1483 1486 1486 1486 1487 1486 1485 1487 1485 1482 1481 1481 1483 1483 1478 1477 1476 1450 1421 1429 1434 1430 1429 1427 1412 1410 1404 1401 1400 1403 1389 1393 1385 1386 1387 1389 1388 1388 1398 1403 1408 1408
1458 1463 1467 1473 1477 1480 1483 1484 1485 1484 1484 1485 1485 1483 1482 1484 1481 1482 1479 1478 1477 1475 1444 1432 1429 1429 1423 1419 1414 1413 1404 1409 1405 1398 1393 1384 1385 1384 1377 1379 1382 1386 1397 1408 1412 1413 1417
1456 1463 1465 1472 1475 1478 1480 1483 1483 1482 1483 1484 1483 1483 1482 1481 1483 1479 1476 1478 1475 1459 1442 1438 1435 1431 1426 1416 1417 1413 1406 1403 1404 1393 1389 1383 1393 1389 1371 1379 1381 1391 1405 1427 1432 1432 1412
1455 1460 1465 1469 1473 1476 1479 1481 1480 1481 1481 1483 1482 1482 1483 1483 1481 1478 1478 1478 1465 1451 1448 1446 1439 1430 1423 1431 1425 1414 1404 1390 1382 1386 1380 1386 1396 1389 1372 1375 1382 1392 1402 1416 1409 1410 1400
1455 1458 1464 1468 1471 1474 1478 1478 1478 1480 1480 1481 1481 1481 1482 1482 1480 1479 1479 1463 1458 1456 1454 1447 1440 1433 1427 1423 1425 1418 1398 1378 1370 1372 1379 1397 1392 1383 1378 1372 1380 1392 1401 1396 1410 1393 1395
1452 1458 1463 1467 1469 1473 1476 1476 1477 1479 1478 1479 1481 1483 1482 1480 1478 1479 1477 1465 1462 1459 1453 1452 1453 1449 1441 1426 1427 1419 1391 1362 1363 1370 1376 1388 1389 1391 1382 1383 1385 1389 1394 1409 1414 1406 1402
1453 1458 1462 1465 1469 1471 1474 1474 1475 1476 1478 1478 1479 1479 1480 1479 1478 1478 1475 1465 1460 1456 1454 1452 1449 1450 1442 1431 1425 1415 1392 1367 1362 1381 1386 1397 1398 1386 1383 1394 1394 1407 1404 1400 1396 1392 1398
1452 1456 1460 1464 1468 1470 1471 1473 1473 1475 1477 1478 1479 1478 1478 1477 1480 1474 1466 1466 1460 1455 1452 1450 1452 1452 1445 1436 1426 1422 1413 1402 1368 1377 1392 1387 1389 1386 1383 1376 1380 1397 1397 1400 1396 1386 1384
1452 1456 1460 1464 1467 1467 1470 1471 1472 1475 1476 1477 1477 1476 1477 1477 1474 1468 1467 1463 1459 1456 1454 1451 1453 1452 1448 1442 1433 1428 1418 1398 1383 1380 1385 1387 1393 1393 1398 1393 1388 1389 1382 1380 1393 1400 1387
1451 1454 1458 1462 1465 1466 1468 1470 1471 1472 1475 1477 1479 1478 1477 1476 1477 1473 1469 1465 1459 1458 1455 1454 1450 1447 1440 1439 1433 1429 1415 1399 1394 1391 1388 1382 1385 1386 1393 1387 1378 1386 1383 1384 1384 1400 1389
1449 1453 1457 1459 1464 1465 1466 1468 1469 1472 1475 1477 1478 1477 1476 1474 1473 1474 1472 1466 1461 1459 1457 1455 1447 1443 1441 1443 1434 1429 1423 1409 1400 1400 1397 1399 1398 1406 1398 1381 1375 1390 1387 1386 1394 1393 1398
1447 1451 1455 1459 1462 1463 1464 1467 1469 1471 1474 1477 1477 1476 1475 1473 1472 1472 1470 1467 1465 1460 1456 1452 1448 1445 1442 1440 1441 1433 1429 1421 1415 1409 1406 1408 1408 1396 1403 1390 1390 1411 1394 1390 1400 1404 1410
1446 1450 1453 1457 1459 1461 1463 1466 1467 1471 1474 1476 1477 1477 1475 1471 1466 1467 1468 1469 1465 1459 1456 1452 1449 1445 1439 1441 1435 1428 1425 1419 1416 1415 1416 1415 1402 1402 1402 1392 1396 1407 1403 1411 1417 1423 1426
1444 1448 1452 1455 1458 1460 1461 1464 1467 1470 1472 1476 1476 1476 1473 1471 1467 1464 1468 1468 1463 1460 1458 1452 1450 1448 1444 1439 1431 1424 1421 1416 1413 1413 1417 1418 1410 1401 1411 1403 1415 1421 1415 1420 1429 1435 1434
1442 1446 1450 1453 1455 1458 1460 1464 1465 1470 1472 1475 1477 1477 1476 1470 1466 1465 1469 1467 1463 1457 1456 1452 1452 1450 1444 1435 1428 1429 1420 1421 1414 1413 1412 1411 1408 1406 1408 1408 1418 1418 1429 1435 1432 1449 1449
1440 1444 1448 1451 1453 1457 1459 1463 1465 1469 1472 1475 1477 1477 1478 1477 1474 1471 1469 1466 1463 1461 1457 1454 1454 1449 1444 1433 1431 1427 1426 1422 1421 1421 1409 1408 1406 1405 1404 1409 1420 1445 1443 1435 1431 1452 1459
1438 1442 1445 1449 1452 1456 1457 1461 1466 1468 1470 1475 1476 1477 1479 1479 1474 1475 1472 1472 1469 1467 1461 1456 1456 1452 1450 1442 1434 1435 1431 1424 1427 1422 1421 1419 1418 1416 1410 1416 1442 1456 1443 1431 1434 1469 1466
1435 1439 1444 1448 1451 1454 1457 1462 1465 1467 1470 1474 1476 1477 1479 1478 1476 1475 1475 1474 1472 1470 1468 1465 1460 1459 1457 1451 1448 1444 1438 1434 1437 1431 1430 1436 1435 1433 1430 1431 1445 1459 1445 1451 1471 1471 1470
1433 1437 1443 1445 1449 1453 1458 1461 1463 1466 1470 1472 1475 1476 1477 1479 1476 1473 1472 1472 1473 1473 1473 1469 1467 1465 1464 1461 1461 1458 1452 1441 1438 1437 1439 1449 1450 1451 1461 1467 1474 1473 1472 1472 1472 1472 1472
Wind_Speed
22 20 17 14 13 11 9 8 6 6 7 7 9 10 12 13 16 19 20 22 22 24 25 25 25 25 25 10 27 22 28 22 24 20 18 20 22 23 26 27 31 31 30 37 38 34 34
21 20 18 16 14 12 9 8 7 7 7 8 10 12 13 16 18 20 23 24 25 25 26 26 24 22 15 19 15 13 14 18 19 15 20 24 25 24 28 27 27 34 34 34 36 35 33
22 20 19 18 16 13 11 9 8 8 8 9 11 13 14 16 19 23 26 27 26 24 25 24 23 18 19 37 18 17 18 18 18 16 17 19 26 28 26 24 35 34 29 29 28 34 27
24 20 19 19 16 14 12 10 9 9 9 9 10 12 15 18 20 24 26 25 24 22 20 17 16 12 21 17 16 22 20 24 25 25 27 25 23 29 31 31 31 26 26 24 29 25 26
24 21 20 19 17 14 12 11 9 9 8 8 10 12 15 18 21 23 25 24 17 15 14 13 10 11 17 10 12 11 11 17 17 20 24 25 26 29 23 19 19 22 22 30 28 26 25
24 23 21 19 17 15 13 10 8 7 6 7 9 12 15 18 20 22 22 20 15 16 10 9 12 12 23 11 8 7 9 10 15 17 20 24 24 18 18 17 20 22 26 24 25 23 26
22 22 21 20 18 15 12 9 6 4 4 6 9 12 15 18 18 17 24 26 21 8 8 16 21 26 30 27 32 33 24 25 22 19 17 23 16 21 30 27 28 24 25 25 23 26 25
23 23 20 18 18 15 11 8 6 3 3 6 9 12 14 16 12 17 16 13 12 13 21 24 37 39 39 31 37 31 19 22 22 23 21 18 23 29 27 25 28 29 27 26 22 26 16
27 21 20 20 17 14 11 8 4 2 2 5 9 12 13 15 9 14 11 11 14 16 10 29 13 14 19 20 24 27 20 22 22 24 24 23 26 24 27 28 27 27 27 21 20 20 17
26 25 23 19 17 14 11 8 4 2 1 5 8 12 14 12 8 12 7 15 14 12 6 7 4 5 6 18 18 20 12 22 21 27 24 25 27 24 26 29 27 23 24 21 20 14 11
26 23 22 19 16 14 11 8 6 3 1 5 7 10 11 14 8 9 13 14 12 6 6 8 16 4 22 15 11 26 27 7 20 23 19 27 24 23 26 25 26 22 14 12 12 13 17
23 21 20 19 16 14 11 9 7 3 1 3 6 9 9 8 8 9 15 12 8 4 3 18 21 25 27 29 27 34 29 14 24 20 25 28 25 22 24 19 22 14 4 8 10 12 14
22 20 19 17 15 14 12 10 7 4 1 2 5 7 8 7 8 13 13 8 4 4 23 18 28 24 26 24 19 22 19 18 14 16 23 22 15 25 16 17 18 11 12 3 7 7 12
24 19 17 16 16 14 12 10 7 4 2 1 4 6 4 3 12 9 10 4 6 15 18 23 21 28 20 7 8 21 19 17 14 26 15 16 9 19 11 16 15 18 17 6 8 9 11
21 20 21 17 15 13 11 9 7 5 2 1 5 4 2 8 8 8 10 4 7 14 17 19 22 15 16 17 18 13 14 18 21 22 16 7 11 11 13 9 17 20 19 19 4 6 2
20 19 17 17 14 13 11 9 7 5 2 1 1 3 4 12 6 5 4 6 9 9 13 14 10 10 18 30 16 11 11 9 11 18 4 2 4 6 7 5 7 7 11 8 5 5 3
16 20 13 18 14 13 12 9 8 6 3 2 3 5 1 9 3 6 3 8 11 12 15 8 18 15 20 15 9 9 11 17 11 12 12 5 3 9 6 9 11 2 7 5 8 7 3
18 18 13 17 14 14 12 9 8 7 5 5 1 2 2 2 3 6 3 10 12 15 13 10 8 6 6 16 6 6 8 13 5 19 11 11 6 7 15 9 11 12 7 15 2 6 4
19 19 16 16 14 14 12 10 9 7 4 3 3 2 2 1 3 4 8 8 8 9 9 11 5 5 14 5 7 8 9 16 29 14 7 4 3 2 4 7 5 7 17 14 8 3 3
22 18 16 16 13 13 13 10 10 7 6 5 2 1 1 5 3 7 8 8 9 5 6 15 6 8 11 4 14 5 10 13 23 20 20 9 3 4 2 5 8 7 10 7 3 2 5
21 17 18 16 15 13 14 12 10 9 9 5 2 3 1 2 3 4 9 8 11 10 7 15 7 18 15 8 11 15 8 12 11 24 13 5 9 3 9 17 12 7 7 6 6 3 4
19 19 20 17 17 12 14 14 12 10 11 3 4 3 5 7 4 7 2 6 10 12 9 12 15 17 11 14 16 18 11 8 7 12 7 10 1 8 9 12 21 10 4 10 15 17 18
22 24 18 19 16 12 15 15 13 12 12 1 1 2 4 2 4 4 1 8 11 11 8 15 15 14 12 19 27 26 12 10 4 6 8 10 5 6 10 12 11 11 16 17 19 19 12
20 20 20 18 14 10 15 16 14 14 14 3 4 5 5 4 4 3 6 11 11 10 8 14 16 14 17 27 22 6 1 4 8 7 3 3 7 3 2 1 4 6 18 21 22 20 17
21 22 20 16 13 10 15 17 15 15 13 6 4 3 5 3 9 4 6 9 13 8 9 8 16 19 20 20 5 4 2 6 8 7 6 4 4 2 2 2 10 12 16 14 10 14 18
20 22 18 16 11 13 12 16 16 14 15 11 2 4 1 6 5 6 9 9 6 10 8 12 20 14 21 5 4 7 4 7 5 6 5 6 7 3 2 4 1 6 20 24 14 7 16
21 18 17 18 13 11 12 16 16 14 14 12 5 8 0 3 3 7 8 7 9 9 8 13 22 13 19 6 4 5 4 10 6 8 8 7 5 7 4 3 5 15 23 20 3 4 10
17 18 18 16 15 11 11 15 16 13 12 12 5 4 2 3 9 7 7 6 10 12 7 16 9 10 7 7 5 4 4 5 4 13 9 7 5 5 6 5 4 29 7 6 2 7 10
16 15 17 17 16 12 13 18 18 14 13 10 4 4 7 5 8 12 12 13 11 10 11 9 5 6 6 4 5 4 3 4 9 1 11 5 4 3 6 3 5 11 12 11 11 11 12
Wind_Direction
217 223 226 228 228 224 229 243 258 277 283 290 302 308 312 315 317 318 316 314 315 316 315 312 314 314 317 288 259 280 283 282 275 265 257 253 245 241 243 247 247 240 246 248 246 248 254
212 220 222 224 222 222 229 244 260 266 277 291 297 308 315 317 315 312 311 317 319 318 313 309 309 304 294 264 291 277 263 261 263 257 252 242 246 244 250 250 247 249 250 253 250 244 247
212 215 218 220 217 220 227 239 251 268 282 292 304 309 313 318 319 320 318 321 321 316 307 305 298 291 270 254 263 266 262 262 255 253 266 253 248 246 255 255 252 253 257 253 244 249 244
210 215 217 218 215 220 229 239 254 272 283 293 305 318 325 325 324 322 321 323 323 317 313 306 287 282 259 266 270 269 270 264 257 256 261 262 266 265 261 261 269 249 250 246 245 248 241
200 208 210 215 217 222 229 241 256 271 282 305 318 325 326 327 328 328 330 331 331 318 317 310 296 224 267 277 254 276 265 259 261 260 256 253 247 255 262 250 252 250 237 234 244 240 238
203 198 210 215 220 224 233 241 253 265 290 310 325 334 339 339 340 340 347 345 339 295 296 280 257 236 246 251 262 263 257 261 274 272 258 246 234 239 237 237 224 223 232 243 255 226 236
196 195 210 217 221 226 231 237 236 256 293 327 339 346 347 351 350 6 8 5 4 332 271 265 275 247 265 274 280 278 269 267 264 252 249 237 225 229 225 225 247 244 245 247 231 236 248
195 198 208 214 218 218 218 222 219 247 310 343 345 351 356 355 8 14 19 6 352 310 296 276 263 264 270 277 280 276 266 254 250 243 236 238 225 232 240 234 234 247 255 252 262 273 272
195 194 195 205 207 207 208 211 214 226 341 352 350 356 0 358 12 12 344 349 333 329 279 299 279 280 272 253 257 272 268 251 245 244 237 241 236 230 237 243 236 233 240 242 249 269 246
191 197 198 203 201 200 203 207 192 183 12 351 355 358 0 12 5 342 352 335 328 330 289 271 137 32 5 307 270 265 247 270 239 246 237 247 242 240 221 234 240 238 229 232 243 271 267
192 193 194 197 192 195 201 197 181 178 17 359 356 3 9 8 7 350 328 324 324 330 305 28 47 67 325 302 287 293 319 298 247 238 240 250 261 239 243 217 229 240 225 244 256 255 266
191 191 187 186 192 196 201 190 190 164 75 358 357 1 6 19 328 325 323 326 329 251 310 334 352 335 324 318 314 318 316 303 267 245 244 246 246 268 228 224 226 232 127 223 234 269 247
190 195 180 186 196 197 198 193 186 166 165 356 354 356 13 33 326 321 334 331 282 289 345 337 332 329 318 315 330 306 318 296 246 212 230 246 256 278 210 225 204 182 185 201 212 218 235
196 190 182 196 198 199 200 197 181 176 165 336 353 8 14 1 320 338 339 295 286 342 338 338 329 321 321 351 308 321 302 274 211 244 219 227 210 233 226 206 185 195 194 209 201 203 221
191 177 192 202 199 200 203 190 174 181 168 337 46 29 18 286 330 338 315 301 5 343 338 331 327 318 314 313 333 316 277 273 219 215 229 220 230 222 256 190 175 184 207 211 315 246 262
180 194 200 198 203 201 200 182 178 179 152 23 79 276 228 329 5 340 285 292 342 343 328 340 330 324 307 310 311 307 278 263 214 205 198 159 182 232 183 46 199 209 186 232 188 214 206
181 205 208 207 207 203 195 181 181 165 169 51 84 245 188 346 38 261 277 347 333 332 336 327 312 304 301 314 299 304 293 289 160 107 63 12 308 171 157 212 169 167 236 220 253 238 273
194 204 214 206 208 198 191 181 179 163 122 81 250 249 329 77 277 233 348 309 308 345 359 5 331 338 293 325 316 340 300 304 232 144 185 196 327 155 200 210 170 194 187 200 254 225 135
199 208 213 207 205 194 191 180 181 178 174 154 269 275 22 93 307 334 14 305 348 357 26 7 327 348 308 325 331 320 307 329 22 28 24 58 201 106 176 290 269 263 184 221 166 277 285
201 203 217 206 202 199 194 183 180 162 149 130 71 325 185 211 182 296 347 325 345 6 15 353 347 313 357 319 340 303 331 360 26 23 350 328 47 325 324 317 162 197 146 179 129 218 305
209 210 197 202 208 206 195 186 180 162 160 110 58 238 140 226 213 333 308 305 339 7 343 341 348 4 358 352 326 350 344 343 5 16 7 45 25 355 317 247 132 145 130 92 95 39 38
208 213 208 201 207 209 197 188 181 159 159 135 173 277 171 261 245 269 259 332 336 344 335 337 357 346 354 358 344 329 345 359 15 2 30 338 316 79 24 63 84 115 168 88 59 31 47
207 204 202 205 207 221 202 187 180 168 169 263 186 268 272 299 235 249 73 313 313 325 330 340 358 342 349 341 322 309 330 325 342 50 49 341 352 31 45 86 98 48 47 71 66 50 44
206 198 198 207 209 228 199 185 183 175 163 192 330 297 280 272 245 334 335 317 322 326 316 333 357 350 322 320 312 295 247 15 57 70 88 344 352 37 44 59 62 97 81 84 67 39 40
206 203 200 204 207 209 193 189 183 182 175 163 114 324 327 308 303 274 326 314 310 326 338 342 360 337 328 317 325 348 273 340 93 63 28 1 290 286 173 145 136 45 19 1 26 47 19
193 198 204 205 206 203 199 194 190 189 184 170 139 204 339 312 350 355 307 303 353 344 337 346 355 346 348 313 349 334 47 334 46 299 68 15 329 259 262 145 218 21 334 329 319 60 9
197 199 197 199 200 206 203 195 196 193 190 198 191 175 203 286 349 359 358 337 335 330 314 6 342 6 3 328 338 5 7 358 1 14 5 2 357 12 1 74 82 345 326 313 354 24 12
191 203 203 205 201 197 199 193 197 193 194 195 212 212 202 280 290 328 310 297 321 342 341 337 334 6 356 13 356 353 334 354 356 29 16 40 334 26 355 40 51 352 19 56 345 46 30
190 199 202 201 200 196 201 201 201 198 191 185 167 182 222 246 267 283 276 263 272 286 309 312 296 17 15 358 20 313 321 341 335 31 23 48 29 50 27 73 72 38 69 53 61 55 36